﻿測定場所 (Monitoring sites),日付 (Measurement date),時間 (Measurement time),線量率 最大値 (max) μGy/h,線量率 最小値 (min) μGy/h,線量率 平均値 (average) μGy/h,
江戸川 (Edogawa),2013-09-01,23:01～24:00,0.0980,0.0848,0.0917,
江戸川 (Edogawa),2013-09-01,22:01～23:00,0.0981,0.0861,0.0913,
江戸川 (Edogawa),2013-09-01,21:01～22:00,0.0960,0.0863,0.0918,
江戸川 (Edogawa),2013-09-01,20:01～21:00,0.0977,0.0843,0.0916,
江戸川 (Edogawa),2013-09-01,19:01～20:00,0.0968,0.0860,0.0915,
江戸川 (Edogawa),2013-09-01,18:01～19:00,0.0976,0.0856,0.0918,
江戸川 (Edogawa),2013-09-01,17:01～18:00,0.0977,0.0861,0.0912,
江戸川 (Edogawa),2013-09-01,16:01～17:00,0.0972,0.0851,0.0904,
江戸川 (Edogawa),2013-09-01,15:01～16:00,0.0964,0.0858,0.0913,
江戸川 (Edogawa),2013-09-01,14:01～15:00,0.0984,0.0853,0.0912,
江戸川 (Edogawa),2013-09-01,13:01～14:00,0.100,0.0854,0.0917,
江戸川 (Edogawa),2013-09-01,12:01～13:00,0.100,0.0845,0.0911,
江戸川 (Edogawa),2013-09-01,11:01～12:00,0.0982,0.0859,0.0922,
江戸川 (Edogawa),2013-09-01,10:01～11:00,0.0966,0.0861,0.0913,
江戸川 (Edogawa),2013-09-01,09:01～10:00,0.0960,0.0864,0.0914,
江戸川 (Edogawa),2013-09-01,08:01～09:00,0.0966,0.0823,0.0902,
江戸川 (Edogawa),2013-09-01,07:01～08:00,0.0963,0.0841,0.0905,
江戸川 (Edogawa),2013-09-01,06:01～07:00,0.0969,0.0857,0.0905,
江戸川 (Edogawa),2013-09-01,05:01～06:00,0.0976,0.0847,0.0906,
江戸川 (Edogawa),2013-09-01,04:01～05:00,0.0958,0.0852,0.0903,
江戸川 (Edogawa),2013-09-01,03:01～04:00,0.0952,0.0861,0.0909,
江戸川 (Edogawa),2013-09-01,02:01～03:00,0.0963,0.0847,0.0910,
江戸川 (Edogawa),2013-09-01,01:01～02:00,0.0973,0.0847,0.0908,
江戸川 (Edogawa),2013-09-01,00:01～01:00,0.0986,0.0857,0.0907,
江戸川 (Edogawa),2013-08-31,23:01～24:00,0.0968,0.0847,0.0903,
江戸川 (Edogawa),2013-08-31,22:01～23:00,0.0975,0.0859,0.0908,
江戸川 (Edogawa),2013-08-31,21:01～22:00,0.0974,0.0847,0.0907,
江戸川 (Edogawa),2013-08-31,20:01～21:00,0.0978,0.0832,0.0905,
江戸川 (Edogawa),2013-08-31,19:01～20:00,0.0960,0.0856,0.0906,
江戸川 (Edogawa),2013-08-31,18:01～19:00,0.0977,0.0849,0.0911,
江戸川 (Edogawa),2013-08-31,17:01～18:00,0.0988,0.0862,0.0906,
江戸川 (Edogawa),2013-08-31,16:01～17:00,0.0975,0.0842,0.0905,
江戸川 (Edogawa),2013-08-31,15:01～16:00,0.0964,0.0856,0.0908,
江戸川 (Edogawa),2013-08-31,14:01～15:00,0.0951,0.0840,0.0905,
江戸川 (Edogawa),2013-08-31,13:01～14:00,0.0977,0.0853,0.0907,
江戸川 (Edogawa),2013-08-31,12:01～13:00,0.0981,0.0829,0.0908,
江戸川 (Edogawa),2013-08-31,11:01～12:00,0.0967,0.0857,0.0903,
江戸川 (Edogawa),2013-08-31,10:01～11:00,0.0978,0.0861,0.0915,
江戸川 (Edogawa),2013-08-31,09:01～10:00,0.0961,0.0858,0.0908,
江戸川 (Edogawa),2013-08-31,08:01～09:00,0.0966,0.0849,0.0907,
江戸川 (Edogawa),2013-08-31,07:01～08:00,0.0955,0.0845,0.0900,
江戸川 (Edogawa),2013-08-31,06:01～07:00,0.0960,0.0841,0.0903,
江戸川 (Edogawa),2013-08-31,05:01～06:00,0.0960,0.0864,0.0908,
江戸川 (Edogawa),2013-08-31,04:01～05:00,0.0960,0.0844,0.0905,
江戸川 (Edogawa),2013-08-31,03:01～04:00,0.0964,0.0874,0.0911,
江戸川 (Edogawa),2013-08-31,02:01～03:00,0.0990,0.0859,0.0910,
江戸川 (Edogawa),2013-08-31,01:01～02:00,0.0964,0.0842,0.0913,
江戸川 (Edogawa),2013-08-31,00:01～01:00,0.0977,0.0843,0.0910,
江戸川 (Edogawa),2013-08-30,23:01～24:00,0.0963,0.0851,0.0912,
江戸川 (Edogawa),2013-08-30,22:01～23:00,0.0950,0.0851,0.0911,
江戸川 (Edogawa),2013-08-30,21:01～22:00,0.0980,0.0848,0.0917,
江戸川 (Edogawa),2013-08-30,20:01～21:00,0.0995,0.0864,0.0921,
江戸川 (Edogawa),2013-08-30,19:01～20:00,0.0957,0.0863,0.0909,
江戸川 (Edogawa),2013-08-30,18:01～19:00,0.0954,0.0849,0.0903,
江戸川 (Edogawa),2013-08-30,17:01～18:00,0.0968,0.0843,0.0906,
江戸川 (Edogawa),2013-08-30,16:01～17:00,0.0955,0.0828,0.0901,
江戸川 (Edogawa),2013-08-30,15:01～16:00,0.0986,0.0839,0.0909,
江戸川 (Edogawa),2013-08-30,14:01～15:00,0.0951,0.0872,0.0908,
江戸川 (Edogawa),2013-08-30,13:01～14:00,0.0957,0.0854,0.0908,
江戸川 (Edogawa),2013-08-30,12:01～13:00,0.0969,0.0853,0.0910,
江戸川 (Edogawa),2013-08-30,11:01～12:00,0.0990,0.0835,0.0904,
江戸川 (Edogawa),2013-08-30,10:01～11:00,0.0965,0.0842,0.0906,
江戸川 (Edogawa),2013-08-30,09:01～10:00,0.0999,0.0851,0.0901,
江戸川 (Edogawa),2013-08-30,08:01～09:00,0.0974,0.0837,0.0907,
江戸川 (Edogawa),2013-08-30,07:01～08:00,0.0977,0.0842,0.0900,
江戸川 (Edogawa),2013-08-30,06:01～07:00,0.0971,0.0843,0.0905,
江戸川 (Edogawa),2013-08-30,05:01～06:00,0.0960,0.0835,0.0899,
江戸川 (Edogawa),2013-08-30,04:01～05:00,0.0982,0.0840,0.0895,
江戸川 (Edogawa),2013-08-30,03:01～04:00,0.0972,0.0827,0.0897,
江戸川 (Edogawa),2013-08-30,02:01～03:00,0.0954,0.0842,0.0900,
江戸川 (Edogawa),2013-08-30,01:01～02:00,0.0956,0.0848,0.0900,
江戸川 (Edogawa),2013-08-30,00:01～01:00,0.0948,0.0832,0.0894,
江戸川 (Edogawa),2013-08-29,23:01～24:00,0.0957,0.0850,0.0903,
江戸川 (Edogawa),2013-08-29,22:01～23:00,0.0942,0.0843,0.0907,
江戸川 (Edogawa),2013-08-29,21:01～22:00,0.0956,0.0848,0.0904,
江戸川 (Edogawa),2013-08-29,20:01～21:00,0.0988,0.0846,0.0904,
江戸川 (Edogawa),2013-08-29,19:01～20:00,0.0983,0.0842,0.0908,
江戸川 (Edogawa),2013-08-29,18:01～19:00,0.0967,0.0821,0.0904,
江戸川 (Edogawa),2013-08-29,17:01～18:00,0.0964,0.0832,0.0906,
江戸川 (Edogawa),2013-08-29,16:01～17:00,0.0967,0.0870,0.0916,
江戸川 (Edogawa),2013-08-29,15:01～16:00,0.0981,0.0856,0.0911,
江戸川 (Edogawa),2013-08-29,14:01～15:00,0.0970,0.0874,0.0914,
江戸川 (Edogawa),2013-08-29,13:01～14:00,0.0968,0.0852,0.0906,
江戸川 (Edogawa),2013-08-29,12:01～13:00,0.0957,0.0842,0.0901,
江戸川 (Edogawa),2013-08-29,11:01～12:00,0.0948,0.0833,0.0900,
江戸川 (Edogawa),2013-08-29,10:01～11:00,0.0958,0.0848,0.0900,
江戸川 (Edogawa),2013-08-29,09:01～10:00,0.0946,0.0860,0.0900,
江戸川 (Edogawa),2013-08-29,08:01～09:00,0.0968,0.0847,0.0904,
江戸川 (Edogawa),2013-08-29,07:01～08:00,0.0988,0.0833,0.0900,
江戸川 (Edogawa),2013-08-29,06:01～07:00,0.0954,0.0842,0.0901,
江戸川 (Edogawa),2013-08-29,05:01～06:00,0.0950,0.0841,0.0899,
江戸川 (Edogawa),2013-08-29,04:01～05:00,0.0979,0.0853,0.0896,
江戸川 (Edogawa),2013-08-29,03:01～04:00,0.0958,0.0856,0.0897,
江戸川 (Edogawa),2013-08-29,02:01～03:00,0.0952,0.0863,0.0905,
江戸川 (Edogawa),2013-08-29,01:01～02:00,0.0971,0.0851,0.0900,
江戸川 (Edogawa),2013-08-29,00:01～01:00,0.0938,0.0835,0.0893,
江戸川 (Edogawa),2013-08-28,23:01～24:00,0.0947,0.0843,0.0894,
江戸川 (Edogawa),2013-08-28,22:01～23:00,0.0951,0.0835,0.0891,
江戸川 (Edogawa),2013-08-28,21:01～22:00,0.0952,0.0841,0.0895,
江戸川 (Edogawa),2013-08-28,20:01～21:00,0.0964,0.0830,0.0893,
江戸川 (Edogawa),2013-08-28,19:01～20:00,0.0941,0.0848,0.0894,
江戸川 (Edogawa),2013-08-28,18:01～19:00,0.0941,0.0833,0.0891,
江戸川 (Edogawa),2013-08-28,17:01～18:00,0.0954,0.0830,0.0896,
江戸川 (Edogawa),2013-08-28,16:01～17:00,0.0946,0.0849,0.0895,
江戸川 (Edogawa),2013-08-28,15:01～16:00,0.0947,0.0838,0.0892,
江戸川 (Edogawa),2013-08-28,14:01～15:00,0.0966,0.0834,0.0893,
江戸川 (Edogawa),2013-08-28,13:01～14:00,0.0940,0.0823,0.0889,
江戸川 (Edogawa),2013-08-28,12:01～13:00,0.0957,0.0843,0.0889,
江戸川 (Edogawa),2013-08-28,11:01～12:00,0.0957,0.0844,0.0896,
江戸川 (Edogawa),2013-08-28,10:01～11:00,0.0940,0.0847,0.0891,
江戸川 (Edogawa),2013-08-28,09:01～10:00,0.0956,0.0841,0.0891,
江戸川 (Edogawa),2013-08-28,08:01～09:00,0.0962,0.0843,0.0894,
江戸川 (Edogawa),2013-08-28,07:01～08:00,0.0965,0.0813,0.0888,
江戸川 (Edogawa),2013-08-28,06:01～07:00,0.0967,0.0828,0.0891,
江戸川 (Edogawa),2013-08-28,05:01～06:00,0.0931,0.0835,0.0885,
江戸川 (Edogawa),2013-08-28,04:01～05:00,0.0968,0.0838,0.0889,
江戸川 (Edogawa),2013-08-28,03:01～04:00,0.0947,0.0842,0.0889,
江戸川 (Edogawa),2013-08-28,02:01～03:00,0.0952,0.0819,0.0888,
江戸川 (Edogawa),2013-08-28,01:01～02:00,0.0961,0.0819,0.0890,
江戸川 (Edogawa),2013-08-28,00:01～01:00,0.0975,0.0819,0.0886,
江戸川 (Edogawa),2013-08-27,23:01～24:00,0.0957,0.0828,0.0885,
江戸川 (Edogawa),2013-08-27,22:01～23:00,0.0940,0.0832,0.0888,
江戸川 (Edogawa),2013-08-27,21:01～22:00,0.0953,0.0822,0.0884,
江戸川 (Edogawa),2013-08-27,20:01～21:00,0.0938,0.0843,0.0886,
江戸川 (Edogawa),2013-08-27,19:01～20:00,0.0946,0.0831,0.0888,
江戸川 (Edogawa),2013-08-27,18:01～19:00,0.0940,0.0809,0.0889,
江戸川 (Edogawa),2013-08-27,17:01～18:00,0.0929,0.0839,0.0879,
江戸川 (Edogawa),2013-08-27,16:01～17:00,0.0952,0.0839,0.0884,
江戸川 (Edogawa),2013-08-27,15:01～16:00,0.0952,0.0825,0.0888,
江戸川 (Edogawa),2013-08-27,14:01～15:00,0.0920,0.0812,0.0877,
江戸川 (Edogawa),2013-08-27,13:01～14:00,0.0937,0.0791,0.0880,
江戸川 (Edogawa),2013-08-27,12:01～13:00,0.0937,0.0825,0.0882,
江戸川 (Edogawa),2013-08-27,11:01～12:00,0.0917,0.0827,0.0876,
江戸川 (Edogawa),2013-08-27,10:01～11:00,0.0955,0.0823,0.0877,
江戸川 (Edogawa),2013-08-27,09:01～10:00,0.0924,0.0822,0.0874,
江戸川 (Edogawa),2013-08-27,08:01～09:00,0.0937,0.0798,0.0876,
江戸川 (Edogawa),2013-08-27,07:01～08:00,0.0936,0.0809,0.0871,
江戸川 (Edogawa),2013-08-27,06:01～07:00,0.0934,0.0816,0.0876,
江戸川 (Edogawa),2013-08-27,05:01～06:00,0.0975,0.0833,0.0910,
江戸川 (Edogawa),2013-08-27,04:01～05:00,0.107,0.0916,0.0997,
江戸川 (Edogawa),2013-08-27,03:01～04:00,0.110,0.0954,0.104,
江戸川 (Edogawa),2013-08-27,02:01～03:00,0.113,0.0958,0.104,
江戸川 (Edogawa),2013-08-27,01:01～02:00,0.109,0.0962,0.102,
江戸川 (Edogawa),2013-08-27,00:01～01:00,0.105,0.0876,0.0975,
江戸川 (Edogawa),2013-08-26,23:01～24:00,0.0972,0.0849,0.0911,
江戸川 (Edogawa),2013-08-26,22:01～23:00,0.0941,0.0842,0.0897,
江戸川 (Edogawa),2013-08-26,21:01～22:00,0.0945,0.0830,0.0895,
江戸川 (Edogawa),2013-08-26,20:01～21:00,0.0971,0.0843,0.0900,
江戸川 (Edogawa),2013-08-26,19:01～20:00,0.0960,0.0836,0.0892,
江戸川 (Edogawa),2013-08-26,18:01～19:00,0.0986,0.0830,0.0898,
江戸川 (Edogawa),2013-08-26,17:01～18:00,0.0971,0.0840,0.0900,
江戸川 (Edogawa),2013-08-26,16:01～17:00,0.0961,0.0837,0.0895,
江戸川 (Edogawa),2013-08-26,15:01～16:00,0.0949,0.0846,0.0896,
江戸川 (Edogawa),2013-08-26,14:01～15:00,0.0934,0.0835,0.0894,
江戸川 (Edogawa),2013-08-26,13:01～14:00,0.0943,0.0841,0.0893,
江戸川 (Edogawa),2013-08-26,12:01～13:00,0.0971,0.0844,0.0890,
江戸川 (Edogawa),2013-08-26,11:01～12:00,0.0942,0.0843,0.0893,
江戸川 (Edogawa),2013-08-26,10:01～11:00,0.0954,0.0848,0.0896,
江戸川 (Edogawa),2013-08-26,09:01～10:00,0.0946,0.0844,0.0891,
江戸川 (Edogawa),2013-08-26,08:01～09:00,0.0940,0.0841,0.0888,
江戸川 (Edogawa),2013-08-26,07:01～08:00,0.0956,0.0851,0.0892,
江戸川 (Edogawa),2013-08-26,06:01～07:00,0.0954,0.0821,0.0886,
江戸川 (Edogawa),2013-08-26,05:01～06:00,0.0949,0.0825,0.0889,
江戸川 (Edogawa),2013-08-26,04:01～05:00,0.0958,0.0829,0.0889,
江戸川 (Edogawa),2013-08-26,03:01～04:00,0.0946,0.0853,0.0894,
江戸川 (Edogawa),2013-08-26,02:01～03:00,0.0937,0.0819,0.0886,
江戸川 (Edogawa),2013-08-26,01:01～02:00,0.0950,0.0822,0.0890,
江戸川 (Edogawa),2013-08-26,00:01～01:00,0.0946,0.0828,0.0889,
